Weather History for KTMB - November, 2012

Change the Weather History Date:

Tuesday, November 13, 2012

  Actual Average Record
Temperature  
Mean Temperature 72 °F -  
Max Temperature 81 °F 81 °F 84 °F (1997)
Min Temperature 64 °F 63 °F 52 °F (1991)
Cooling Degree Days 8    
Growing Degree Days 22 (Base 50)    
Moisture  
Dew Point 64 °F    
Average Humidity 75    
Maximum Humidity 100    
Minimum Humidity 52    
Precipitation  
Precipitation 0.00 in - - ()
Sea Level Pressure  
Sea Level Pressure 30.09 in    
Wind  
Wind Speed 6 mph (NE)    
Max Wind Speed 15 mph    
Max Gust Speed 21 mph    
Visibility 10 miles    
Events      
Averages and records for this station are not official NWS values.
T = Trace of Precipitation, MM = Missing Value Source: NWS Daily Summary

Daily Weather History Graph

Daily Weather History Graph

Search for Another Location

Airport or City:

Trip Planner

Search our weather history database for the weather conditions in past years. The results will help you decide how hot, cold, wet, or windy it might be!

Date:

Astronomy

Nov. 13, 2012 Rise Set
Actual Time 6:38 AM EST 5:33 PM EST
Civil Twilight 6:14 AM EST 5:57 PM EST
Nautical Twilight 5:46 AM EST 6:25 PM EST
Astronomical Twilight 5:19 AM EST 6:52 PM EST
Moon 6:13 AM EST (11/13) 5:28 PM EST (11/13)
Length of Visible Light 11h 43m
Length of Day
10h 55m
Waning Crescent, 0% of the Moon is Illuminated
Nov 13
Waning Crescent
Nov 13
New
Nov 20
First Quarter
Nov 28
Full
Dec 6
Last Quarter

Hourly Weather History & Observations

Time (EST) Temp. Heat Index Dew Point Humidity Pressure Visibility Wind Dir Wind Speed Gust Speed Precip Events Conditions
12:53 AM 72.0 °F - 66.0 °F 81% 30.11 in 10.0 mi East 6.9 mph - N/A   Clear
1:53 AM 68.0 °F - 64.9 °F 90% 30.09 in 10.0 mi ENE 4.6 mph - N/A   Clear
2:53 AM 66.9 °F - 64.9 °F 93% 30.08 in 10.0 mi Calm Calm - N/A   Partly Cloudy
3:53 AM 66.9 °F - 64.9 °F 93% 30.08 in 10.0 mi Calm Calm - N/A   Clear
4:53 AM 66.0 °F - 64.0 °F 93% 30.09 in 10.0 mi Calm Calm - N/A   Clear
5:53 AM 64.0 °F - 64.0 °F 100% 30.09 in 10.0 mi NNE 3.5 mph - N/A   Clear
6:53 AM 64.9 °F - 64.0 °F 97% 30.11 in 10.0 mi NNE 3.5 mph - N/A   Clear
7:53 AM 72.0 °F - 66.9 °F 84% 30.12 in 10.0 mi NE 5.8 mph - N/A   Clear
8:53 AM 78.1 °F - 66.0 °F 66% 30.13 in 10.0 mi ENE 8.1 mph - N/A   Scattered Clouds
9:53 AM 80.1 °F 81.9 °F 64.9 °F 60% 30.14 in 10.0 mi East 12.7 mph - N/A   Mostly Cloudy
10:53 AM 80.6 °F 81.8 °F 62.6 °F 54% 30.12 in 10.0 mi ENE 13.8 mph - N/A   Scattered Clouds
11:53 AM 81.0 °F 81.9 °F 62.1 °F 52% 30.10 in 10.0 mi ENE 13.8 mph - N/A   Scattered Clouds
12:53 PM 81.0 °F 81.9 °F 62.1 °F 52% 30.08 in 10.0 mi ENE 13.8 mph - N/A   Scattered Clouds
1:53 PM 80.1 °F 81.7 °F 64.0 °F 58% 30.06 in 10.0 mi East 15.0 mph 20.7 mph N/A   Partly Cloudy
2:53 PM 80.1 °F 81.2 °F 62.1 °F 54% 30.05 in 10.0 mi ENE 13.8 mph - N/A   Clear
3:53 PM 80.1 °F 81.5 °F 63.0 °F 56% 30.05 in 10.0 mi ENE 11.5 mph - N/A   Partly Cloudy
4:53 PM 78.1 °F - 64.0 °F 62% 30.05 in 10.0 mi ENE 10.4 mph - N/A   Partly Cloudy
5:53 PM 75.9 °F - 64.0 °F 67% 30.07 in 10.0 mi NE 6.9 mph - N/A   Clear
6:53 PM 73.9 °F - 64.0 °F 71% 30.08 in 10.0 mi ENE 4.6 mph - N/A   Clear
7:53 PM 73.0 °F - 64.0 °F 73% 30.09 in 10.0 mi NE 3.5 mph - N/A   Clear
8:53 PM 73.0 °F - 64.0 °F 73% 30.08 in 10.0 mi ENE 6.9 mph - N/A   Clear
9:53 PM 69.1 °F - 63.0 °F 81% 30.09 in 10.0 mi North 5.8 mph - N/A   Clear
10:53 PM 66.9 °F - 64.0 °F 90% 30.09 in 10.0 mi North 5.8 mph - N/A   Partly Cloudy
11:53 PM 66.0 °F - 64.0 °F 93% 30.09 in 10.0 mi North 4.6 mph - N/A   Clear